WetterOnline ( https://www.wetteronline.de )

Wetter aktuell Irrel

Aktuelles Wetter: Trier/Petrisberg (273m)

6-stündlich | Neueste Meldungen
Ortszeit Temperatur Wetter
Di, 21.05. 2:00 13.9° C wolkig
Mo, 20.05. 20:00 20.8° C leicht bewölkt
Mo, 20.05. 14:00 19.7° C wolkenlos
Mo, 20.05. 8:00 9.7° C Nebel
Mo, 20.05. 2:00 9.6° C fast wolkenlos
So, 19.05. 20:00 15.1° C bedeckt
So, 19.05. 14:00 16.9° C leicht bewölkt
So, 19.05. 8:00 12.0° C Nebel
Ortszeit Temperatur Wetter
Di, 21.05. 3:00 13.6° C bedeckt
Di, 21.05. 2:50 13.6° C bedeckt
Di, 21.05. 2:40 13.5° C bedeckt
Di, 21.05. 2:30 13.6° C bewölkt
Di, 21.05. 2:20 13.6° C bewölkt
Di, 21.05. 2:10 13.6° C bedeckt
Di, 21.05. 2:00 13.9° C wolkig
Di, 21.05. 1:30 14.6° C bedeckt
Di, 21.05. 1:00 14.8° C bedeckt
Di, 21.05. 0:30 14.7° C wolkig
Di, 21.05. 0:00 15.5° C leicht bewölkt
Ortszeit Relative Feuchte Sichtweite
Di, 21.05. 2:00 85% 40 km
Mo, 20.05. 20:00 55% 60 km
Mo, 20.05. 14:00 48% 40 km
Mo, 20.05. 8:00 99% 100 m
Mo, 20.05. 2:00 97% 10 km
So, 19.05. 20:00 77% 35 km
So, 19.05. 14:00 63% 30 km
So, 19.05. 8:00 97% 0.9 km
Ortszeit Relative Feuchte Sichtweite
Di, 21.05. 3:00 87% 45 km
Di, 21.05. 2:50 87% -
Di, 21.05. 2:40 86% -
Di, 21.05. 2:30 85% 45 km
Di, 21.05. 2:20 85% -
Di, 21.05. 2:10 86% -
Di, 21.05. 2:00 85% 40 km
Di, 21.05. 1:30 81% 50 km
Di, 21.05. 1:00 81% 45 km
Di, 21.05. 0:30 81% 40 km
Di, 21.05. 0:00 79% 45 km
Ortszeit Niederschlagsmenge Niederschlagsart
Di, 21.05. 2:00 0.0 l/m2 in 6 Std. -
Mo, 20.05. 20:00 0.0 l/m2 in 12 Std. -
Mo, 20.05. 14:00 0.0 l/m2 in 6 Std. -
Mo, 20.05. 8:00 0.1 l/m2 in 12 Std. -
Mo, 20.05. 2:00 0.0 l/m2 in 6 Std. -
So, 19.05. 20:00 0.3 l/m2 in 12 Std. Regen
So, 19.05. 14:00 0.1 l/m2 in 6 Std. -
So, 19.05. 8:00 1 l/m2 in 12 Std. Regen
Ortszeit Niederschlagsmenge Niederschlagsart
Di, 21.05. 3:00 0.0 l/m2 in 1 Std. -
Di, 21.05. 2:50 keine Meldung -
Di, 21.05. 2:40 keine Meldung -
Di, 21.05. 2:30 0.0 l/m2 in 30 Min -
Di, 21.05. 2:20 keine Meldung -
Di, 21.05. 2:10 keine Meldung -
Di, 21.05. 2:00 0.0 l/m2 in 1 Std. -
Di, 21.05. 1:30 0.0 l/m2 in 30 Min -
Di, 21.05. 1:00 0.0 l/m2 in 1 Std. -
Di, 21.05. 0:30 0.0 l/m2 in 30 Min -
Di, 21.05. 0:00 0.0 l/m2 in 1 Std. -
Ortszeit Stärke Spitze Richtung
km/h Bft. km/h Grad Sektor
Di, 21.05. 2:00 13 3 24 40° NO
Mo, 20.05. 20:00 15 3 22 40° NO
Mo, 20.05. 14:00 6 1 15 160° S
Mo, 20.05. 8:00 7 2 11 10° N
Mo, 20.05. 2:00 4 1 14 100° O
So, 19.05. 20:00 9 2 33 230° SW
So, 19.05. 14:00 9 2 20 310° NW
So, 19.05. 8:00 7 2 11 230° SW
Ortszeit Stärke Spitze Richtung
km/h Bft. km/h Grad Sektor
Di, 21.05. 3:00 11 2 18 40° NO
Di, 21.05. 2:50 11 2 - 40° NO
Di, 21.05. 2:40 9 2 - 40° NO
Di, 21.05. 2:30 11 2 18 50° NO
Di, 21.05. 2:20 11 2 - 50° NO
Di, 21.05. 2:10 11 2 - 40° NO
Di, 21.05. 2:00 13 3 20 40° NO
Di, 21.05. 1:30 11 2 18 30° NO
Di, 21.05. 1:00 13 3 24 40° NO
Di, 21.05. 0:30 13 3 24 40° NO
Di, 21.05. 0:00 14 3 22 40° NO
Ortszeit Untergrenze Bedeckung Gattung
total tief tief mittel hoch
Di, 21.05. 2:00 6300 m 7/8 3/8 - - -
Mo, 20.05. 20:00 9000 m 6/8 0/8 - - -
Mo, 20.05. 14:00 - 0/8 0/8 - - -
Mo, 20.05. 8:00 <30 m 8/8 0/8 - - -
Mo, 20.05. 2:00 90 m 1/8 1/8 - - -
So, 19.05. 20:00 3300 m 8/8 8/8 - - -
So, 19.05. 14:00 6600 m 2/8 2/8 - - -
So, 19.05. 8:00 <30 m 8/8 0/8 - - -
Ortszeit Bedeckungsgrad in Achtel und Wolkenuntergrenze
Di, 21.05. 3:00 8(6300m) 8(7200m) 8(7800m)
Di, 21.05. 2:50 8(6300m) 8(7200m) 8(7800m)
Di, 21.05. 2:40 8
Di, 21.05. 2:30 7(6900m) 8(7500m) 8(8100m)
Di, 21.05. 2:20 7(6900m) 8(7500m) 8(8100m)
Di, 21.05. 2:10 8
Di, 21.05. 2:00 3(6300m) 7(7200m) 7(8400m)
Di, 21.05. 1:30 7(3300m) 8(6300m) 8(7500m)
Di, 21.05. 1:00 4(3300m) 8(6600m) 8(8100m)
Di, 21.05. 0:30 1(3300m) 6(8400m) 7(9000m)
Di, 21.05. 0:00 2(3300m) 3(7500m) 5(8700m)
Ortszeit Luftdruck NN (hPa) Tendenz (hPa in 3 Std.)
Di, 21.05. 2:00 1008 - 0,7
Mo, 20.05. 20:00 1008 - 0,6
Mo, 20.05. 14:00 1010 - 0,6
Mo, 20.05. 8:00 1012 + 0,1
Mo, 20.05. 2:00 1012 0,0
So, 19.05. 20:00 1011 + 0,1
So, 19.05. 14:00 1012 - 0,6
So, 19.05. 8:00 1012 + 0,8
Ortszeit Luftdruck NN (hPa) Tendenz (hPa in 3 Std.)
Di, 21.05. 3:00 1008 - 0,9
Di, 21.05. 2:50 1008 keine Meldung
Di, 21.05. 2:40 1008 keine Meldung
Di, 21.05. 2:30 1008 - 0,7
Di, 21.05. 2:20 1008 keine Meldung
Di, 21.05. 2:10 1008 keine Meldung
Di, 21.05. 2:00 1008 - 0,7
Di, 21.05. 1:30 1009 - 0,3
Di, 21.05. 1:00 1009 + 0,1
Di, 21.05. 0:30 1009 + 0,6
Di, 21.05. 0:00 1009 + 0,3
Ortszeit Schneehöhe (cm)
Di, 21.05. 2:00 0
Mo, 20.05. 20:00 0
Mo, 20.05. 14:00 0
Mo, 20.05. 8:00 0
Mo, 20.05. 2:00 0
So, 19.05. 20:00 0
So, 19.05. 14:00 0
So, 19.05. 8:00 0
Ortszeit Schneehöhe (cm)
Di, 21.05. 3:00 0
Di, 21.05. 2:50 0
Di, 21.05. 2:40 -
Di, 21.05. 2:30 0
Di, 21.05. 2:20 0
Di, 21.05. 2:10 -
Di, 21.05. 2:00 0
Di, 21.05. 1:30 0
Di, 21.05. 1:00 0
Di, 21.05. 0:30 0
Di, 21.05. 0:00 0
Link zu dieser Seite / Seite empfehlen

Das Wetter in ...